CZ-6A DEB, 60863

Orbit data source: Space-Track

CZ-6A DEB, 60863 is space debris in LEO originally from a launch on Tue, 06 Aug 2024 UTC launched from the Taiyaun Space Center, China (TSC). Debris objects in space refer to the collection of defunct objects orbiting the Earth. Examples of debris include non-operational satellites, rocket bodies, and fragments generated from explosions, collisions, or faulty payload assembly.

Loading next visibility...
Identifier
60863, 2024-140JS
Orbit
LEO
Country
Flag of CNCN / PRC
Related business
Manufacturer
SAST
Mission
Spacecraft
Bus & Motor
Unknown
Mass
Unknown
Launch date (UTC)
2024-08-06 (2 years ago)
Launch vehicle
Unknown
Launch site
Taiyaun Space Center, China (TSC)
Object type
Payload
Rocket body
Debris
Shape & HBR
Unknown shape, 0.1 m
Radar Cross Section
Small (<0.1 m²)

Expand to show TLE details & history
Last TLE update: 14 hours ago

TLE from 14 hours ago
0 CZ-6A DEB
1 60863U 24140JS  26171.26629581  .00000314  00000-0  12965-3 0  9994
2 60863  89.0012 273.8215 0026650 179.6404 180.4812 14.24098708 95891
Epoch: 2026-06-20T06:23Z
TLE epoch observation values (Epoch: 2026-06-20T06:23:27.957Z)
Latitude
-0.00003°
Longitude
-90.52838°
Altitude
833.747 km
Speed
7.426 km/s
True Right ascension
18h 15m 17s
True Declination
0° 00' 00"
Sunlit
Object was in full shadow at epoch
Visualization orbit readout
Latitude
Unknown
Longitude
Unknown
Altitude
Unknown
Speed
Unknown
Apparent Right ascension
Unknown
Apparent Declination
Unknown
Sunlit
N/A
Visualization observer readout
Local Sidereal Time
07:23:31
Azimuth
Unknown
Elevation
Unknown
Doppler factor
Unknown
Orbital elements
Apogee altitude
827.622 km
Perigee altitude
789.318 km
Semi-major axis
7,186.607 km
Eccentricity
0.00267
Inclination
89.0012°
RAAN
273.8215°
Arg. of periapsis
179.6404°
True anomaly
180.47864°
Mean anomaly
180.4812°
Eccentric anomaly
180.47992°
Mean motion
3.56252 °/min
Orbital period
101.05 mins
BSTAR
0.00012965
Loading maneuver chart data...
Computing Atmospheric mass density...
Loading historical data...
Loading historical data...
Loading historical data...
Loading historical data...
Loading historical data...
Loading historical data...
Loading historical data...

Documentation

Showing up to 5 results
|